owner,sensor,date,latitude,longitude,relative_humidity,qcFlag 
COMPS,ioos:station:USF.COMPS:FHP:1,2013-12-03T16:00:00Z,28.1530,-82.8010,77.5,1111122 
COMPS,ioos:station:USF.COMPS:FHP:1,2013-12-03T16:06:00Z,28.1530,-82.8010,80.01,1111122 
COMPS,ioos:station:USF.COMPS:FHP:1,2013-12-03T16:12:00Z,28.1530,-82.8010,79.58,1111122 
COMPS,ioos:station:USF.COMPS:FHP:1,2013-12-03T16:18:00Z,28.1530,-82.8010,78.03,1111122 
COMPS,ioos:station:USF.COMPS:FHP:1,2013-12-03T16:24:00Z,28.1530,-82.8010,78.29,1111122 
COMPS,ioos:station:USF.COMPS:FHP:1,2013-12-03T16:30:00Z,28.1530,-82.8010,79.12,1111122 
COMPS,ioos:station:USF.COMPS:FHP:1,2013-12-03T16:36:00Z,28.1530,-82.8010,79.5,1111122 
COMPS,ioos:station:USF.COMPS:FHP:1,2013-12-03T16:42:00Z,28.1530,-82.8010,79.29,1111122 
COMPS,ioos:station:USF.COMPS:FHP:1,2013-12-03T16:48:00Z,28.1530,-82.8010,79.42,1111122 
COMPS,ioos:station:USF.COMPS:FHP:1,2013-12-03T16:54:00Z,28.1530,-82.8010,77.84,1111122 
COMPS,ioos:station:USF.COMPS:FHP:1,2013-12-03T17:00:00Z,28.1530,-82.8010,77.72,1111122 
COMPS,ioos:station:USF.COMPS:FHP:1,2013-12-03T17:06:00Z,28.1530,-82.8010,75.42,1111122 
COMPS,ioos:station:USF.COMPS:FHP:1,2013-12-03T17:12:00Z,28.1530,-82.8010,75.4,1111122 
COMPS,ioos:station:USF.COMPS:FHP:1,2013-12-03T17:18:00Z,28.1530,-82.8010,75.23,1111122 
COMPS,ioos:station:USF.COMPS:FHP:1,2013-12-03T17:24:00Z,28.1530,-82.8010,75.03,1111122 
COMPS,ioos:station:USF.COMPS:FHP:1,2013-12-03T17:30:00Z,28.1530,-82.8010,78.43,1111122 
COMPS,ioos:station:USF.COMPS:FHP:1,2013-12-03T17:36:00Z,28.1530,-82.8010,79.61,1111122 
COMPS,ioos:station:USF.COMPS:FHP:1,2013-12-03T17:42:00Z,28.1530,-82.8010,81.39,1111122 
COMPS,ioos:station:USF.COMPS:FHP:1,2013-12-03T17:48:00Z,28.1530,-82.8010,81.24,1111122 
COMPS,ioos:station:USF.COMPS:FHP:1,2013-12-03T17:54:00Z,28.1530,-82.8010,81.53,1111122 
COMPS,ioos:station:USF.COMPS:FHP:1,2013-12-03T18:00:00Z,28.1530,-82.8010,81.52,1111122 
COMPS,ioos:station:USF.COMPS:FHP:1,2013-12-03T18:06:00Z,28.1530,-82.8010,81.85,1111122 
COMPS,ioos:station:USF.COMPS:FHP:1,2013-12-03T18:12:00Z,28.1530,-82.8010,80.75,1111122 
COMPS,ioos:station:USF.COMPS:FHP:1,2013-12-03T18:18:00Z,28.1530,-82.8010,81.24,1111122 
COMPS,ioos:station:USF.COMPS:FHP:1,2013-12-03T18:24:00Z,28.1530,-82.8010,80.25,1111122 
COMPS,ioos:station:USF.COMPS:FHP:1,2013-12-03T18:30:00Z,28.1530,-82.8010,80.21,1111122 
COMPS,ioos:station:USF.COMPS:FHP:1,2013-12-03T18:36:00Z,28.1530,-82.8010,80.12,1111122 
COMPS,ioos:station:USF.COMPS:FHP:1,2013-12-03T18:42:00Z,28.1530,-82.8010,81.58,1111122 
COMPS,ioos:station:USF.COMPS:FHP:1,2013-12-03T18:48:00Z,28.1530,-82.8010,80.41,1111122 
COMPS,ioos:station:USF.COMPS:FHP:1,2013-12-03T18:54:00Z,28.1530,-82.8010,80.29,1111122 
COMPS,ioos:station:USF.COMPS:FHP:1,2013-12-03T19:00:00Z,28.1530,-82.8010,80.8,1111122 
COMPS,ioos:station:USF.COMPS:FHP:1,2013-12-03T19:06:00Z,28.1530,-82.8010,81.43,1111122 
COMPS,ioos:station:USF.COMPS:FHP:1,2013-12-03T19:12:00Z,28.1530,-82.8010,82.11,1111122 
COMPS,ioos:station:USF.COMPS:FHP:1,2013-12-03T19:18:00Z,28.1530,-82.8010,81.34,1111122 
COMPS,ioos:station:USF.COMPS:FHP:1,2013-12-03T19:24:00Z,28.1530,-82.8010,81.27,1111122 
COMPS,ioos:station:USF.COMPS:FHP:1,2013-12-03T19:30:00Z,28.1530,-82.8010,80.72,1111122 
COMPS,ioos:station:USF.COMPS:FHP:1,2013-12-03T19:36:00Z,28.1530,-82.8010,80.04,1111122 
COMPS,ioos:station:USF.COMPS:FHP:1,2013-12-03T19:42:00Z,28.1530,-82.8010,81.06,1111122 
COMPS,ioos:station:USF.COMPS:FHP:1,2013-12-03T19:48:00Z,28.1530,-82.8010,79.65,1111122 
COMPS,ioos:station:USF.COMPS:FHP:1,2013-12-03T19:54:00Z,28.1530,-82.8010,76.26,1111122 
COMPS,ioos:station:USF.COMPS:FHP:1,2013-12-03T20:00:00Z,28.1530,-82.8010,74.25,1111122 
COMPS,ioos:station:USF.COMPS:FHP:1,2013-12-03T20:06:00Z,28.1530,-82.8010,77.11,1111122 
COMPS,ioos:station:USF.COMPS:FHP:1,2013-12-03T20:12:00Z,28.1530,-82.8010,81.36,1111122 
COMPS,ioos:station:USF.COMPS:FHP:1,2013-12-03T20:18:00Z,28.1530,-82.8010,81.67,1111122 
COMPS,ioos:station:USF.COMPS:FHP:1,2013-12-03T20:24:00Z,28.1530,-82.8010,80.93,1111122 
COMPS,ioos:station:USF.COMPS:FHP:1,2013-12-03T20:30:00Z,28.1530,-82.8010,80.64,1111122 
COMPS,ioos:station:USF.COMPS:FHP:1,2013-12-03T20:36:00Z,28.1530,-82.8010,79.45,1111122 
COMPS,ioos:station:USF.COMPS:FHP:1,2013-12-03T20:42:00Z,28.1530,-82.8010,78.09,1111122 
COMPS,ioos:station:USF.COMPS:FHP:1,2013-12-03T20:48:00Z,28.1530,-82.8010,79.05,1111122 
COMPS,ioos:station:USF.COMPS:FHP:1,2013-12-03T20:54:00Z,28.1530,-82.8010,79.3,1111122 
COMPS,ioos:station:USF.COMPS:FHP:1,2013-12-03T21:00:00Z,28.1530,-82.8010,78.88,1111122 
COMPS,ioos:station:USF.COMPS:FHP:1,2013-12-03T21:06:00Z,28.1530,-82.8010,78.47,1111122 
COMPS,ioos:station:USF.COMPS:FHP:1,2013-12-03T21:12:00Z,28.1530,-82.8010,78.5,1111122 
COMPS,ioos:station:USF.COMPS:FHP:1,2013-12-03T21:18:00Z,28.1530,-82.8010,80.96,1111122 
COMPS,ioos:station:USF.COMPS:FHP:1,2013-12-03T21:24:00Z,28.1530,-82.8010,82.85,1111122 
COMPS,ioos:station:USF.COMPS:FHP:1,2013-12-03T21:30:00Z,28.1530,-82.8010,81.96,1111122 
COMPS,ioos:station:USF.COMPS:FHP:1,2013-12-03T21:36:00Z,28.1530,-82.8010,79.58,1111122 
COMPS,ioos:station:USF.COMPS:FHP:1,2013-12-03T21:42:00Z,28.1530,-82.8010,80.99,1111122 
COMPS,ioos:station:USF.COMPS:FHP:1,2013-12-03T21:48:00Z,28.1530,-82.8010,82.49,1111122 
COMPS,ioos:station:USF.COMPS:FHP:1,2013-12-03T21:54:00Z,28.1530,-82.8010,84.71,1111122 
COMPS,ioos:station:USF.COMPS:FHP:1,2013-12-03T22:00:00Z,28.1530,-82.8010,86.78,1111122 
COMPS,ioos:station:USF.COMPS:FHP:1,2013-12-03T22:06:00Z,28.1530,-82.8010,87.55,1111122 
COMPS,ioos:station:USF.COMPS:FHP:1,2013-12-03T22:12:00Z,28.1530,-82.8010,88.52,1111122 
COMPS,ioos:station:USF.COMPS:FHP:1,2013-12-03T22:18:00Z,28.1530,-82.8010,89.71,1111122 
COMPS,ioos:station:USF.COMPS:FHP:1,2013-12-03T22:24:00Z,28.1530,-82.8010,90.14,1111122 
COMPS,ioos:station:USF.COMPS:FHP:1,2013-12-03T22:30:00Z,28.1530,-82.8010,90.65,1111122 
COMPS,ioos:station:USF.COMPS:FHP:1,2013-12-03T22:36:00Z,28.1530,-82.8010,90.96,1111122 
COMPS,ioos:station:USF.COMPS:FHP:1,2013-12-03T22:42:00Z,28.1530,-82.8010,91.31,1111122 
COMPS,ioos:station:USF.COMPS:FHP:1,2013-12-03T22:48:00Z,28.1530,-82.8010,91.49,1111122 
COMPS,ioos:station:USF.COMPS:FHP:1,2013-12-03T22:54:00Z,28.1530,-82.8010,91.25,1111122 
COMPS,ioos:station:USF.COMPS:FHP:1,2013-12-03T23:00:00Z,28.1530,-82.8010,90.27,1111122 
COMPS,ioos:station:USF.COMPS:FHP:1,2013-12-03T23:06:00Z,28.1530,-82.8010,90.1,1111122 
COMPS,ioos:station:USF.COMPS:FHP:1,2013-12-03T23:12:00Z,28.1530,-82.8010,90.69,1111122 
COMPS,ioos:station:USF.COMPS:FHP:1,2013-12-03T23:18:00Z,28.1530,-82.8010,91.09,1111122 
COMPS,ioos:station:USF.COMPS:FHP:1,2013-12-03T23:24:00Z,28.1530,-82.8010,90.96,1111122 
COMPS,ioos:station:USF.COMPS:FHP:1,2013-12-03T23:30:00Z,28.1530,-82.8010,91.04,1111122 
COMPS,ioos:station:USF.COMPS:FHP:1,2013-12-03T23:36:00Z,28.1530,-82.8010,91.19,1111122 
COMPS,ioos:station:USF.COMPS:FHP:1,2013-12-03T23:42:00Z,28.1530,-82.8010,91.09,1111122 
COMPS,ioos:station:USF.COMPS:FHP:1,2013-12-03T23:48:00Z,28.1530,-82.8010,90.79,1111122 
COMPS,ioos:station:USF.COMPS:FHP:1,2013-12-03T23:54:00Z,28.1530,-82.8010,90.25,1111122 
COMPS,ioos:station:USF.COMPS:FHP:1,2013-12-04T00:00:00Z,28.1530,-82.8010,89.58,1111122 
COMPS,ioos:station:USF.COMPS:FHP:1,2013-12-04T00:06:00Z,28.1530,-82.8010,89.37,1111122 
COMPS,ioos:station:USF.COMPS:FHP:1,2013-12-04T00:12:00Z,28.1530,-82.8010,89.11,1111122 
COMPS,ioos:station:USF.COMPS:FHP:1,2013-12-04T00:18:00Z,28.1530,-82.8010,89.4,1111122 
COMPS,ioos:station:USF.COMPS:FHP:1,2013-12-04T00:24:00Z,28.1530,-82.8010,89.9,1111122 
COMPS,ioos:station:USF.COMPS:FHP:1,2013-12-04T00:30:00Z,28.1530,-82.8010,90.59,1111122 
COMPS,ioos:station:USF.COMPS:FHP:1,2013-12-04T00:36:00Z,28.1530,-82.8010,89.43,1111122 
COMPS,ioos:station:USF.COMPS:FHP:1,2013-12-04T00:42:00Z,28.1530,-82.8010,87.87,1111122 
COMPS,ioos:station:USF.COMPS:FHP:1,2013-12-04T00:48:00Z,28.1530,-82.8010,87.22,1111122 
COMPS,ioos:station:USF.COMPS:FHP:1,2013-12-04T00:54:00Z,28.1530,-82.8010,87.46,1111122 
COMPS,ioos:station:USF.COMPS:FHP:1,2013-12-04T01:00:00Z,28.1530,-82.8010,87.57,1111122 
COMPS,ioos:station:USF.COMPS:FHP:1,2013-12-04T01:06:00Z,28.1530,-82.8010,87.72,1111122 
COMPS,ioos:station:USF.COMPS:FHP:1,2013-12-04T01:12:00Z,28.1530,-82.8010,87.16,1111122 
COMPS,ioos:station:USF.COMPS:FHP:1,2013-12-04T01:18:00Z,28.1530,-82.8010,87.2,1111122 
COMPS,ioos:station:USF.COMPS:FHP:1,2013-12-04T01:24:00Z,28.1530,-82.8010,88.0,1111122 
COMPS,ioos:station:USF.COMPS:FHP:1,2013-12-04T01:30:00Z,28.1530,-82.8010,87.83,1111122 
COMPS,ioos:station:USF.COMPS:FHP:1,2013-12-04T01:36:00Z,28.1530,-82.8010,86.9,1111122 
COMPS,ioos:station:USF.COMPS:FHP:1,2013-12-04T01:42:00Z,28.1530,-82.8010,87.29,1111122 
COMPS,ioos:station:USF.COMPS:FHP:1,2013-12-04T01:48:00Z,28.1530,-82.8010,87.21,1111122 
COMPS,ioos:station:USF.COMPS:FHP:1,2013-12-04T01:54:00Z,28.1530,-82.8010,88.07,1111122 
COMPS,ioos:station:USF.COMPS:FHP:1,2013-12-04T02:00:00Z,28.1530,-82.8010,88.28,1111122 
COMPS,ioos:station:USF.COMPS:FHP:1,2013-12-04T02:06:00Z,28.1530,-82.8010,89.0,1111122 
COMPS,ioos:station:USF.COMPS:FHP:1,2013-12-04T02:12:00Z,28.1530,-82.8010,89.33,1111122 
COMPS,ioos:station:USF.COMPS:FHP:1,2013-12-04T02:18:00Z,28.1530,-82.8010,90.08,1111122 
COMPS,ioos:station:USF.COMPS:FHP:1,2013-12-04T02:24:00Z,28.1530,-82.8010,90.61,1111122 
COMPS,ioos:station:USF.COMPS:FHP:1,2013-12-04T02:30:00Z,28.1530,-82.8010,91.36,1111122 
COMPS,ioos:station:USF.COMPS:FHP:1,2013-12-04T02:36:00Z,28.1530,-82.8010,91.38,1111122 
COMPS,ioos:station:USF.COMPS:FHP:1,2013-12-04T02:42:00Z,28.1530,-82.8010,90.96,1111122 
COMPS,ioos:station:USF.COMPS:FHP:1,2013-12-04T02:48:00Z,28.1530,-82.8010,90.5,1111122 
COMPS,ioos:station:USF.COMPS:FHP:1,2013-12-04T02:54:00Z,28.1530,-82.8010,91.1,1111122 
COMPS,ioos:station:USF.COMPS:FHP:1,2013-12-04T03:00:00Z,28.1530,-82.8010,91.79,1111122 
COMPS,ioos:station:USF.COMPS:FHP:1,2013-12-04T03:06:00Z,28.1530,-82.8010,91.94,1111122 
COMPS,ioos:station:USF.COMPS:FHP:1,2013-12-04T03:12:00Z,28.1530,-82.8010,92.24,1111122 
COMPS,ioos:station:USF.COMPS:FHP:1,2013-12-04T03:18:00Z,28.1530,-82.8010,92.41,1111122 
COMPS,ioos:station:USF.COMPS:FHP:1,2013-12-04T03:24:00Z,28.1530,-82.8010,92.21,1111122 
COMPS,ioos:station:USF.COMPS:FHP:1,2013-12-04T03:30:00Z,28.1530,-82.8010,91.94,1111122 
COMPS,ioos:station:USF.COMPS:FHP:1,2013-12-04T03:36:00Z,28.1530,-82.8010,91.93,1111122 
COMPS,ioos:station:USF.COMPS:FHP:1,2013-12-04T03:42:00Z,28.1530,-82.8010,91.67,1111122 
COMPS,ioos:station:USF.COMPS:FHP:1,2013-12-04T03:48:00Z,28.1530,-82.8010,90.81,1111122 
COMPS,ioos:station:USF.COMPS:FHP:1,2013-12-04T03:54:00Z,28.1530,-82.8010,90.81,1111122 
COMPS,ioos:station:USF.COMPS:FHP:1,2013-12-04T04:00:00Z,28.1530,-82.8010,90.83,1111122 
COMPS,ioos:station:USF.COMPS:FHP:1,2013-12-04T04:06:00Z,28.1530,-82.8010,91.45,1111122 
COMPS,ioos:station:USF.COMPS:FHP:1,2013-12-04T04:12:00Z,28.1530,-82.8010,92.11,1111122 
COMPS,ioos:station:USF.COMPS:FHP:1,2013-12-04T04:18:00Z,28.1530,-82.8010,92.56,1111122 
COMPS,ioos:station:USF.COMPS:FHP:1,2013-12-04T04:24:00Z,28.1530,-82.8010,92.97,1111122 
COMPS,ioos:station:USF.COMPS:FHP:1,2013-12-04T04:30:00Z,28.1530,-82.8010,93.04,1111122 
COMPS,ioos:station:USF.COMPS:FHP:1,2013-12-04T04:36:00Z,28.1530,-82.8010,93.5,1111122 
COMPS,ioos:station:USF.COMPS:FHP:1,2013-12-04T04:42:00Z,28.1530,-82.8010,93.58,1111122 
COMPS,ioos:station:USF.COMPS:FHP:1,2013-12-04T04:48:00Z,28.1530,-82.8010,93.88,1111122 
COMPS,ioos:station:USF.COMPS:FHP:1,2013-12-04T04:54:00Z,28.1530,-82.8010,94.0,1111122 
COMPS,ioos:station:USF.COMPS:FHP:1,2013-12-04T05:00:00Z,28.1530,-82.8010,93.82,1111122 
COMPS,ioos:station:USF.COMPS:FHP:1,2013-12-04T05:06:00Z,28.1530,-82.8010,93.93,1111122 
COMPS,ioos:station:USF.COMPS:FHP:1,2013-12-04T05:12:00Z,28.1530,-82.8010,94.04,1111122 
COMPS,ioos:station:USF.COMPS:FHP:1,2013-12-04T05:18:00Z,28.1530,-82.8010,94.27,1111122 
COMPS,ioos:station:USF.COMPS:FHP:1,2013-12-04T05:24:00Z,28.1530,-82.8010,94.11,1111122 
COMPS,ioos:station:USF.COMPS:FHP:1,2013-12-04T05:30:00Z,28.1530,-82.8010,94.0,1111122 
COMPS,ioos:station:USF.COMPS:FHP:1,2013-12-04T05:36:00Z,28.1530,-82.8010,93.98,1111122 
COMPS,ioos:station:USF.COMPS:FHP:1,2013-12-04T05:42:00Z,28.1530,-82.8010,93.89,1111122 
COMPS,ioos:station:USF.COMPS:FHP:1,2013-12-04T05:48:00Z,28.1530,-82.8010,93.44,1111122 
COMPS,ioos:station:USF.COMPS:FHP:1,2013-12-04T05:54:00Z,28.1530,-82.8010,92.86,1111122 
COMPS,ioos:station:USF.COMPS:FHP:1,2013-12-04T06:00:00Z,28.1530,-82.8010,92.79,1111122 
COMPS,ioos:station:USF.COMPS:FHP:1,2013-12-04T06:06:00Z,28.1530,-82.8010,93.09,1111122 
COMPS,ioos:station:USF.COMPS:FHP:1,2013-12-04T06:12:00Z,28.1530,-82.8010,93.38,1111122 
COMPS,ioos:station:USF.COMPS:FHP:1,2013-12-04T06:18:00Z,28.1530,-82.8010,93.47,1111122 
COMPS,ioos:station:USF.COMPS:FHP:1,2013-12-04T06:24:00Z,28.1530,-82.8010,92.99,1111122 
COMPS,ioos:station:USF.COMPS:FHP:1,2013-12-04T06:30:00Z,28.1530,-82.8010,92.71,1111122 
COMPS,ioos:station:USF.COMPS:FHP:1,2013-12-04T06:36:00Z,28.1530,-82.8010,92.49,1111122 
COMPS,ioos:station:USF.COMPS:FHP:1,2013-12-04T06:42:00Z,28.1530,-82.8010,92.27,1111122 
COMPS,ioos:station:USF.COMPS:FHP:1,2013-12-04T06:48:00Z,28.1530,-82.8010,92.41,1111122 
COMPS,ioos:station:USF.COMPS:FHP:1,2013-12-04T06:54:00Z,28.1530,-82.8010,92.13,1111122 
COMPS,ioos:station:USF.COMPS:FHP:1,2013-12-04T07:00:00Z,28.1530,-82.8010,91.97,1111122 
COMPS,ioos:station:USF.COMPS:FHP:1,2013-12-04T07:06:00Z,28.1530,-82.8010,91.82,1111122 
COMPS,ioos:station:USF.COMPS:FHP:1,2013-12-04T07:12:00Z,28.1530,-82.8010,92.03,1111122 
COMPS,ioos:station:USF.COMPS:FHP:1,2013-12-04T07:18:00Z,28.1530,-82.8010,93.09,1111122 
COMPS,ioos:station:USF.COMPS:FHP:1,2013-12-04T07:24:00Z,28.1530,-82.8010,93.63,1111122 
COMPS,ioos:station:USF.COMPS:FHP:1,2013-12-04T07:30:00Z,28.1530,-82.8010,93.78,1111122 
COMPS,ioos:station:USF.COMPS:FHP:1,2013-12-04T07:36:00Z,28.1530,-82.8010,94.05,1111122 
COMPS,ioos:station:USF.COMPS:FHP:1,2013-12-04T07:42:00Z,28.1530,-82.8010,94.17,1111122 
COMPS,ioos:station:USF.COMPS:FHP:1,2013-12-04T07:48:00Z,28.1530,-82.8010,94.4,1111122 
COMPS,ioos:station:USF.COMPS:FHP:1,2013-12-04T07:54:00Z,28.1530,-82.8010,94.69,1111122 
COMPS,ioos:station:USF.COMPS:FHP:1,2013-12-04T08:00:00Z,28.1530,-82.8010,94.96,1111122 
COMPS,ioos:station:USF.COMPS:FHP:1,2013-12-04T08:06:00Z,28.1530,-82.8010,95.38,1111122 
COMPS,ioos:station:USF.COMPS:FHP:1,2013-12-04T08:12:00Z,28.1530,-82.8010,95.06,1111122 
COMPS,ioos:station:USF.COMPS:FHP:1,2013-12-04T08:18:00Z,28.1530,-82.8010,95.13,1111122 
COMPS,ioos:station:USF.COMPS:FHP:1,2013-12-04T08:24:00Z,28.1530,-82.8010,95.29,1111122 
COMPS,ioos:station:USF.COMPS:FHP:1,2013-12-04T08:30:00Z,28.1530,-82.8010,95.25,1111122 
COMPS,ioos:station:USF.COMPS:FHP:1,2013-12-04T08:36:00Z,28.1530,-82.8010,95.42,1111122 
COMPS,ioos:station:USF.COMPS:FHP:1,2013-12-04T08:42:00Z,28.1530,-82.8010,95.61,1111122 
COMPS,ioos:station:USF.COMPS:FHP:1,2013-12-04T08:48:00Z,28.1530,-82.8010,95.6,1111122 
COMPS,ioos:station:USF.COMPS:FHP:1,2013-12-04T08:54:00Z,28.1530,-82.8010,95.58,1111122 
COMPS,ioos:station:USF.COMPS:FHP:1,2013-12-04T09:00:00Z,28.1530,-82.8010,95.61,1111122 
COMPS,ioos:station:USF.COMPS:FHP:1,2013-12-04T09:06:00Z,28.1530,-82.8010,95.49,1111122 
COMPS,ioos:station:USF.COMPS:FHP:1,2013-12-04T09:12:00Z,28.1530,-82.8010,95.69,1111122 
COMPS,ioos:station:USF.COMPS:FHP:1,2013-12-04T09:18:00Z,28.1530,-82.8010,95.98,1111122 
COMPS,ioos:station:USF.COMPS:FHP:1,2013-12-04T09:24:00Z,28.1530,-82.8010,96.12,1111122 
COMPS,ioos:station:USF.COMPS:FHP:1,2013-12-04T09:30:00Z,28.1530,-82.8010,96.24,1111122 
COMPS,ioos:station:USF.COMPS:FHP:1,2013-12-04T09:36:00Z,28.1530,-82.8010,96.25,1111122 
COMPS,ioos:station:USF.COMPS:FHP:1,2013-12-04T09:42:00Z,28.1530,-82.8010,96.09,1111122 
COMPS,ioos:station:USF.COMPS:FHP:1,2013-12-04T09:48:00Z,28.1530,-82.8010,96.09,1111122 
COMPS,ioos:station:USF.COMPS:FHP:1,2013-12-04T09:54:00Z,28.1530,-82.8010,96.19,1111122 
COMPS,ioos:station:USF.COMPS:FHP:1,2013-12-04T10:00:00Z,28.1530,-82.8010,96.06,1111122 
COMPS,ioos:station:USF.COMPS:FHP:1,2013-12-04T10:06:00Z,28.1530,-82.8010,96.29,1111122 
COMPS,ioos:station:USF.COMPS:FHP:1,2013-12-04T10:12:00Z,28.1530,-82.8010,96.38,1111122 
COMPS,ioos:station:USF.COMPS:FHP:1,2013-12-04T10:18:00Z,28.1530,-82.8010,96.44,1111122 
COMPS,ioos:station:USF.COMPS:FHP:1,2013-12-04T10:24:00Z,28.1530,-82.8010,96.25,1111122 
COMPS,ioos:station:USF.COMPS:FHP:1,2013-12-04T10:30:00Z,28.1530,-82.8010,95.94,1111122 
COMPS,ioos:station:USF.COMPS:FHP:1,2013-12-04T10:36:00Z,28.1530,-82.8010,96.01,1111122 
COMPS,ioos:station:USF.COMPS:FHP:1,2013-12-04T10:42:00Z,28.1530,-82.8010,96.16,1111122 
COMPS,ioos:station:USF.COMPS:FHP:1,2013-12-04T10:48:00Z,28.1530,-82.8010,96.23,1111122 
COMPS,ioos:station:USF.COMPS:FHP:1,2013-12-04T10:54:00Z,28.1530,-82.8010,96.56,1111122 
COMPS,ioos:station:USF.COMPS:FHP:1,2013-12-04T11:00:00Z,28.1530,-82.8010,96.78,1111122 
COMPS,ioos:station:USF.COMPS:FHP:1,2013-12-04T11:06:00Z,28.1530,-82.8010,96.87,1111122 
COMPS,ioos:station:USF.COMPS:FHP:1,2013-12-04T11:12:00Z,28.1530,-82.8010,96.81,1111122 
COMPS,ioos:station:USF.COMPS:FHP:1,2013-12-04T11:18:00Z,28.1530,-82.8010,96.93,1111122 
COMPS,ioos:station:USF.COMPS:FHP:1,2013-12-04T11:24:00Z,28.1530,-82.8010,97.1,1111122 
COMPS,ioos:station:USF.COMPS:FHP:1,2013-12-04T11:30:00Z,28.1530,-82.8010,97.24,1111122 
COMPS,ioos:station:USF.COMPS:FHP:1,2013-12-04T11:36:00Z,28.1530,-82.8010,97.12,1111122 
COMPS,ioos:station:USF.COMPS:FHP:1,2013-12-04T11:42:00Z,28.1530,-82.8010,97.3,1111122 
COMPS,ioos:station:USF.COMPS:FHP:1,2013-12-04T11:48:00Z,28.1530,-82.8010,97.25,1111122 
COMPS,ioos:station:USF.COMPS:FHP:1,2013-12-04T11:54:00Z,28.1530,-82.8010,97.21,1111122 
COMPS,ioos:station:USF.COMPS:FHP:1,2013-12-04T12:00:00Z,28.1530,-82.8010,97.43,1111122 
COMPS,ioos:station:USF.COMPS:FHP:1,2013-12-04T12:06:00Z,28.1530,-82.8010,97.71,1111122 
COMPS,ioos:station:USF.COMPS:FHP:1,2013-12-04T12:12:00Z,28.1530,-82.8010,98.12,1111122 
COMPS,ioos:station:USF.COMPS:FHP:1,2013-12-04T12:18:00Z,28.1530,-82.8010,98.28,1111122 
COMPS,ioos:station:USF.COMPS:FHP:1,2013-12-04T12:24:00Z,28.1530,-82.8010,98.51,1111122 
COMPS,ioos:station:USF.COMPS:FHP:1,2013-12-04T12:30:00Z,28.1530,-82.8010,98.61,1111122 
COMPS,ioos:station:USF.COMPS:FHP:1,2013-12-04T12:36:00Z,28.1530,-82.8010,98.62,1111122 
COMPS,ioos:station:USF.COMPS:FHP:1,2013-12-04T12:42:00Z,28.1530,-82.8010,98.53,1111122 
COMPS,ioos:station:USF.COMPS:FHP:1,2013-12-04T12:48:00Z,28.1530,-82.8010,98.56,1111122 
COMPS,ioos:station:USF.COMPS:FHP:1,2013-12-04T12:54:00Z,28.1530,-82.8010,98.59,1111122 
COMPS,ioos:station:USF.COMPS:FHP:1,2013-12-04T13:00:00Z,28.1530,-82.8010,98.58,1111122 
COMPS,ioos:station:USF.COMPS:FHP:1,2013-12-04T13:06:00Z,28.1530,-82.8010,98.6,1111122 
COMPS,ioos:station:USF.COMPS:FHP:1,2013-12-04T13:12:00Z,28.1530,-82.8010,98.75,1111122 
COMPS,ioos:station:USF.COMPS:FHP:1,2013-12-04T13:18:00Z,28.1530,-82.8010,98.55,1111122 
COMPS,ioos:station:USF.COMPS:FHP:1,2013-12-04T13:24:00Z,28.1530,-82.8010,98.62,1111122 
COMPS,ioos:station:USF.COMPS:FHP:1,2013-12-04T13:30:00Z,28.1530,-82.8010,98.63,1111122 
COMPS,ioos:station:USF.COMPS:FHP:1,2013-12-04T13:36:00Z,28.1530,-82.8010,98.61,1111122 
COMPS,ioos:station:USF.COMPS:FHP:1,2013-12-04T13:42:00Z,28.1530,-82.8010,98.46,1111122 
COMPS,ioos:station:USF.COMPS:FHP:1,2013-12-04T13:48:00Z,28.1530,-82.8010,98.47,1111122 
COMPS,ioos:station:USF.COMPS:FHP:1,2013-12-04T13:54:00Z,28.1530,-82.8010,98.17,1111122 
COMPS,ioos:station:USF.COMPS:FHP:1,2013-12-04T14:00:00Z,28.1530,-82.8010,97.39,1111122 
COMPS,ioos:station:USF.COMPS:FHP:1,2013-12-04T14:06:00Z,28.1530,-82.8010,95.97,1111122 
COMPS,ioos:station:USF.COMPS:FHP:1,2013-12-04T14:12:00Z,28.1530,-82.8010,92.64,1111122 
COMPS,ioos:station:USF.COMPS:FHP:1,2013-12-04T14:18:00Z,28.1530,-82.8010,90.58,1111122 
COMPS,ioos:station:USF.COMPS:FHP:1,2013-12-04T14:24:00Z,28.1530,-82.8010,90.03,1111122 
COMPS,ioos:station:USF.COMPS:FHP:1,2013-12-04T14:30:00Z,28.1530,-82.8010,90.11,1111122 
COMPS,ioos:station:USF.COMPS:FHP:1,2013-12-04T14:36:00Z,28.1530,-82.8010,89.98,1111122 
COMPS,ioos:station:USF.COMPS:FHP:1,2013-12-04T14:42:00Z,28.1530,-82.8010,89.52,1111122 
COMPS,ioos:station:USF.COMPS:FHP:1,2013-12-04T14:48:00Z,28.1530,-82.8010,89.43,1111122 
COMPS,ioos:station:USF.COMPS:FHP:1,2013-12-04T14:54:00Z,28.1530,-82.8010,89.01,1111122 
COMPS,ioos:station:USF.COMPS:FHP:1,2013-12-04T15:00:00Z,28.1530,-82.8010,88.31,1111122 
COMPS,ioos:station:USF.COMPS:FHP:1,2013-12-04T15:06:00Z,28.1530,-82.8010,87.61,1111122 
COMPS,ioos:station:USF.COMPS:FHP:1,2013-12-04T15:12:00Z,28.1530,-82.8010,88.15,1111122 
COMPS,ioos:station:USF.COMPS:FHP:1,2013-12-04T15:18:00Z,28.1530,-82.8010,88.17,1111122 
COMPS,ioos:station:USF.COMPS:FHP:1,2013-12-04T15:24:00Z,28.1530,-82.8010,87.11,1111122 
COMPS,ioos:station:USF.COMPS:FHP:1,2013-12-04T15:30:00Z,28.1530,-82.8010,87.89,1111122 
COMPS,ioos:station:USF.COMPS:FHP:1,2013-12-04T15:36:00Z,28.1530,-82.8010,88.41,1111122 
COMPS,ioos:station:USF.COMPS:FHP:1,2013-12-04T15:42:00Z,28.1530,-82.8010,88.28,1111122 
COMPS,ioos:station:USF.COMPS:FHP:1,2013-12-04T15:48:00Z,28.1530,-82.8010,89.05,1111122 
COMPS,ioos:station:USF.COMPS:FHP:1,2013-12-04T15:54:00Z,28.1530,-82.8010,87.88,1111122 
COMPS,ioos:station:USF.COMPS:FHP:1,2013-12-04T16:00:00Z,28.1530,-82.8010,87.15,1111122 
COMPS,ioos:station:USF.COMPS:FHP:1,2013-12-04T16:06:00Z,28.1530,-82.8010,86.83,1111122 
COMPS,ioos:station:USF.COMPS:FHP:1,2013-12-04T16:12:00Z,28.1530,-82.8010,87.99,1111122 
COMPS,ioos:station:USF.COMPS:FHP:1,2013-12-04T16:18:00Z,28.1530,-82.8010,87.01,1111122 
COMPS,ioos:station:USF.COMPS:FHP:1,2013-12-04T16:24:00Z,28.1530,-82.8010,86.38,1111122 
COMPS,ioos:station:USF.COMPS:FHP:1,2013-12-04T16:30:00Z,28.1530,-82.8010,87.07,1111122 
COMPS,ioos:station:USF.COMPS:FHP:1,2013-12-04T16:36:00Z,28.1530,-82.8010,88.01,1111122 
COMPS,ioos:station:USF.COMPS:FHP:1,2013-12-04T16:42:00Z,28.1530,-82.8010,87.36,1111122 
COMPS,ioos:station:USF.COMPS:FHP:1,2013-12-04T16:48:00Z,28.1530,-82.8010,86.55,1111122 
COMPS,ioos:station:USF.COMPS:FHP:1,2013-12-04T16:54:00Z,28.1530,-82.8010,85.14,1111122 
COMPS,ioos:station:USF.COMPS:FHP:1,2013-12-04T17:00:00Z,28.1530,-82.8010,84.59,1111122 
COMPS,ioos:station:USF.COMPS:FHP:1,2013-12-04T17:06:00Z,28.1530,-82.8010,83.79,1111122 
COMPS,ioos:station:USF.COMPS:FHP:1,2013-12-04T17:12:00Z,28.1530,-82.8010,84.52,1111122 
COMPS,ioos:station:USF.COMPS:FHP:1,2013-12-04T17:18:00Z,28.1530,-82.8010,85.57,1111122 
COMPS,ioos:station:USF.COMPS:FHP:1,2013-12-04T17:24:00Z,28.1530,-82.8010,86.67,1111122 
COMPS,ioos:station:USF.COMPS:FHP:1,2013-12-04T17:30:00Z,28.1530,-82.8010,87.48,1111122 
COMPS,ioos:station:USF.COMPS:FHP:1,2013-12-04T17:36:00Z,28.1530,-82.8010,87.96,1111122 
COMPS,ioos:station:USF.COMPS:FHP:1,2013-12-04T17:42:00Z,28.1530,-82.8010,87.85,1111122 
COMPS,ioos:station:USF.COMPS:FHP:1,2013-12-04T17:48:00Z,28.1530,-82.8010,87.59,1111122 
COMPS,ioos:station:USF.COMPS:FHP:1,2013-12-04T17:54:00Z,28.1530,-82.8010,87.76,1111122 
COMPS,ioos:station:USF.COMPS:FHP:1,2013-12-04T18:00:00Z,28.1530,-82.8010,88.58,1111122 
COMPS,ioos:station:USF.COMPS:FHP:1,2013-12-04T18:06:00Z,28.1530,-82.8010,88.08,1111122 
COMPS,ioos:station:USF.COMPS:FHP:1,2013-12-04T18:12:00Z,28.1530,-82.8010,87.11,1111122 
COMPS,ioos:station:USF.COMPS:FHP:1,2013-12-04T18:18:00Z,28.1530,-82.8010,86.56,1111122 
COMPS,ioos:station:USF.COMPS:FHP:1,2013-12-04T18:24:00Z,28.1530,-82.8010,86.47,1111122 
COMPS,ioos:station:USF.COMPS:FHP:1,2013-12-04T18:30:00Z,28.1530,-82.8010,86.12,1111122 
COMPS,ioos:station:USF.COMPS:FHP:1,2013-12-04T18:36:00Z,28.1530,-82.8010,85.26,1111122 
COMPS,ioos:station:USF.COMPS:FHP:1,2013-12-04T18:42:00Z,28.1530,-82.8010,85.14,1111122 
COMPS,ioos:station:USF.COMPS:FHP:1,2013-12-04T18:48:00Z,28.1530,-82.8010,84.34,1111122 
COMPS,ioos:station:USF.COMPS:FHP:1,2013-12-04T18:54:00Z,28.1530,-82.8010,85.28,1111122 
COMPS,ioos:station:USF.COMPS:FHP:1,2013-12-04T19:00:00Z,28.1530,-82.8010,85.41,1111122 
COMPS,ioos:station:USF.COMPS:FHP:1,2013-12-04T19:06:00Z,28.1530,-82.8010,84.71,1111122 